sat.trackr.live / text

‹ back to catalog

STARLINK-30906

NORAD 58408 · 2023-180G

PAYLOAD ACTIVE UNKNOWN

§ Identity

Operator
Country
US
Launch date
2023-11-22
Launch site
AFETR
Launch vehicle
Mass (kg)
RCS (m²)

Purposes: comms

External: N2YO · Heavens-Above · Gunter

§ Orbital elements

Epoch: 2026-09-20T19:47:36.553632Z

Period
94.27 min
Inclination
43.0049°
Eccentricity
0.0001829
Mean motion
15.27577776 rev/d
Perigee alt
481.8 km
Apogee alt
484.3 km
Semi-major
6,861.2 km
B*
1.3461e-5
RAAN
34.2679°
Arg perigee
286.5479°
Mean anomaly
73.5172°
Rev number
15,731

§ Raw data

STARLINK-309061 58408U 23180G   26263.82472863  .00000108  00000+0  13461-4 0  99952 58408  43.0049  34.2679 0001829 286.5479  73.5172 15.27577776157315

JSON: /api/v1/satellites/58408 · /tle

For live sub-satellite position, see the globe view (requires WebGL).

§ Visibility from observer

Set your observer location to see the next 7 days of passes ≥ 10°. The values pass through the URL so the page stays shareable.

No JS? Fill the form by hand. The geolocation button needs JavaScript.